MST,Max TemperatureF,Mean TemperatureF,Min TemperatureF,Max Dew PointF,MeanDew PointF,Min DewpointF,Max Humidity, Mean Humidity, Min Humidity, Max Sea Level PressureIn, Mean Sea Level PressureIn, Min Sea Level PressureIn, Max VisibilityMiles, Mean VisibilityMiles, Min VisibilityMiles, Max Wind SpeedMPH, Mean Wind SpeedMPH, Max Gust SpeedMPH,PrecipitationIn, CloudCover, Events, WindDirDegrees
2013-11-1,76,60,43,25,20,16,35,23,12,30.13,30.04,29.97,10,10,10,10,6,,0.00,0,,123
2013-11-2,85,70,55,52,26,11,69,25,7,30.02,29.93,29.79,10,10,7,25,13,36,0.03,1,Rain,145
2013-11-3,78,68,56,54,47,40,82,52,27,29.99,29.79,29.70,10,10,9,13,8,,0.06,0,Rain,154
2013-11-4,77,65,53,51,43,41,64,45,28,29.81,29.73,29.65,10,10,10,17,9,22,0.00,1,,196
2013-11-5,68,60,51,45,43,38,76,58,33,30.09,29.95,29.80,10,9,2,12,5,,0.00,2,,285
2013-11-6,74,60,46,40,24,12,69,31,9,30.22,30.16,30.10,10,9,3,9,6,,0.00,0,,101
2013-11-7,80,66,52,29,20,10,26,19,13,30.21,30.11,29.98,10,8,2,26,10,37,0.00,0,,117
2013-11-8,79,68,57,34,31,28,37,27,18,30.04,29.97,29.89,10,10,9,15,9,,0.00,0,,175
2013-11-9,79,66,52,38,34,31,45,32,21,30.06,30.01,29.95,10,10,7,9,6,,0.00,0,,165
2013-11-10,84,68,52,35,34,32,49,31,16,30.12,30.02,29.94,10,10,10,14,7,,0.00,0,,197
2013-11-11,85,69,53,38,35,32,43,30,17,30.04,29.99,29.91,10,10,10,13,6,,0.00,0,,146
2013-11-12,86,72,58,43,38,32,40,30,20,30.12,30.08,30.03,10,10,10,18,9,25,0.00,0,,119
2013-11-13,78,70,61,43,41,40,47,38,28,30.09,30.01,29.93,10,10,10,32,14,38,0.00,0,,118
2013-11-14,79,67,55,42,39,34,56,39,23,29.98,29.89,29.80,10,10,10,14,8,,0.00,0,,124
2013-11-15,74,65,56,51,44,33,60,45,32,29.79,29.70,29.59,10,10,10,20,9,30,0.00,1,,176
2013-11-16,74,65,56,51,44,33,70,48,22,29.84,29.74,29.65,10,10,10,21,10,25,0.00,1,,238
2013-11-17,74,63,52,46,44,42,72,51,32,30.01,29.94,29.86,10,10,10,10,5,,0.00,1,,178
2013-11-18,76,64,53,47,43,41,64,48,29,30.04,29.98,29.91,10,10,10,13,5,,0.00,0,,176
2013-11-19,77,64,51,41,37,30,60,42,18,29.95,29.88,29.78,10,10,10,15,6,,0.00,0,,170
2013-11-20,72,60,49,40,36,33,55,39,26,29.87,29.82,29.75,10,10,10,13,7,17,0.00,2,,258
2013-11-21,72,62,51,54,43,35,84,52,32,29.94,29.86,29.78,10,10,10,16,7,,0.00,3,Rain,196
2013-11-22,62,54,46,55,51,46,100,93,62,29.99,29.91,29.74,10,9,4,20,9,,0.49,7,Rain,308
2013-11-23,53,50,46,49,46,44,100,96,76,30.07,30.01,29.96,10,8,2,16,8,,1.15,7,Rain,229
2013-11-24,56,50,43,44,41,38,83,70,54,30.12,30.06,30.01,10,10,10,14,7,,0.00,2,,61
2013-11-25,57,48,38,42,39,37,97,75,48,30.21,30.14,30.10,10,10,10,9,3,,0.00,0,,260
2013-11-26,64,54,43,41,31,21,91,43,26,30.24,30.16,30.09,10,10,10,20,8,32,0.00,0,,99
2013-11-27,62,56,50,28,23,20,39,29,22,30.09,30.02,29.95,10,10,10,30,11,39,0.00,0,,94
2013-11-28,70,58,47,43,30,24,57,37,23,30.06,30.00,29.93,10,10,10,20,10,,0.00,0,,110
2013-11-29,72,60,48,44,39,36,76,51,27,30.14,30.08,30.00,10,10,10,13,7,,0.00,0,,141
2013-11-30,68,58,47,46,43,41,82,61,40,30.14,30.09,30.00,10,10,10,8,4,,0.00,1,,102